Location: Boca do Mato
(22.9085°S, 43.2930°W)
Time: 19:33:50
(UTC+00:00)

ISS - Visible Passes

Search period start: 21 September 2020 00:00
Search period end: 01 October 2020 00:00
Orbit: 419 x 420 km, 51.6° (Epoch: 21 September)

Date Brightness Start Highest point End Pass type
(mag) Time Alt. Az. Time Alt. Az. Time Alt. Az.
21 Sep -2.2 07:07:21 29° NE 07:07:53 31° NE 07:10:56 10° ESE visible
22 Sep -0.1 06:22:40 10° E 06:22:40 10° E 06:22:41 10° E visible
22 Sep -2.4 07:55:41 18° W 07:57:12 25° SW 08:00:06 10° SSE visible
23 Sep -2.6 07:10:48 35° S 07:10:48 35° S 07:13:06 10° SSE visible
24 Sep -0.3 06:25:45 10° SE 06:25:45 10° SE 06:25:46 10° SE visible
25 Sep -1.0 07:13:32 11° SSW 07:13:32 11° SSW 07:13:42 10° S visible
